Home   Weather   Frankfurt   Past weeks

Flag for Germany Past Weather in Frankfurt, Hesse, Germany — Yesterday and Last 2 Weeks

Now
57 °F

Clear.


Feels Like: 56 °F
Forecast: 56 / 67 °F
Wind: 6 mph from Southwest

Location: Frankfurt-M-Flughafen Airport

Current Time: Sep 29, 2016 at 2:07:17 AM

Latest Report: Sep 29, 2016 at 1:20 AM


Visibility: 10 mi

Pressure: 30.27 "Hg

Humidity: 88%

Dew Point: 54 °F

Location of FrankfurtLocation

Past Weather in Frankfurt — Graph

°F

Frankfurt Temperature Yesterday

Maximum temperature yesterday: 73 °F (at 1:50 PM)
Minimum temperature yesterday: 50 °F (at 5:50 AM)
Average temperature yesterday: 61 °F

High & Low Weather Summary for the Past Weeks

 TemperatureHumidityPressure
High90 °F (Sep 14, 3:50 PM)100% (Sep 17, 6:20 AM)30.36 "Hg (Sep 17, 6:20 AM)
Low46 °F (Sep 21, 7:20 AM)29% (Sep 14, 3:50 PM)29.83 "Hg (Sep 15, 3:50 AM)
Average63 °F70%30.09 "Hg
* Reported Sep 14 12:20 AM — Sep 29 12:50 AM, Frankfurt, Weather by CustomWeather, © 2016

Note: Actual official high and low records may vary slightly from our data, if they occured in-between our weather recording intervals... More about our weather records

Advertising

Frankfurt Weather History for the Previous 24 Hours

Scroll right to see more
 ConditionsComfort  
Time TempWeatherWind HumidityBarometerVisibility
12:50 AM
Thu, Sep 29
57 °FClear.6 mph88%30.27 "Hg10 mi
12:20 AM59 °FClear.8 mph82%30.27 "Hg10 mi
11:50 PM
Wed, Sep 28
61 °FClear.7 mph77%30.27 "Hg10 mi
11:20 PM61 °FClear.6 mph77%30.30 "Hg10 mi
10:50 PM61 °FClear.6 mph77%30.30 "Hg10 mi
10:20 PM63 °FClear.7 mph73%30.30 "Hg10 mi
9:50 PM63 °FClear.7 mph73%30.30 "Hg10 mi
9:20 PM63 °FClear.6 mph73%30.30 "Hg10 mi
8:50 PM63 °FClear.5 mph73%30.30 "Hg10 mi
8:20 PM64 °FClear.6 mph68%30.30 "Hg10 mi
7:50 PM66 °FClear.8 mph64%30.30 "Hg10 mi
7:20 PM68 °FPassing clouds.9 mph60%30.30 "HgN/A
6:50 PM68 °FScattered clouds.10 mph60%30.30 "HgN/A
6:20 PM70 °FPartly sunny.14 mph53%30.30 "HgN/A
5:50 PM70 °FPartly sunny.17 mph53%30.30 "HgN/A
5:20 PM70 °FPartly sunny.18 mph57%30.27 "HgN/A
4:50 PM72 °FBroken clouds.18 mph53%30.30 "HgN/A
4:20 PM72 °FPartly sunny.16 mph53%30.30 "HgN/A
3:50 PM72 °FPartly sunny.16 mph53%30.30 "HgN/A
3:20 PM72 °FPartly sunny.16 mph53%30.30 "HgN/A
2:50 PM72 °FPartly sunny.18 mph53%30.30 "HgN/A
2:20 PM72 °FPartly sunny.16 mph47%30.30 "HgN/A
1:50 PM73 °FPartly sunny.16 mph41%30.30 "HgN/A
1:20 PM72 °FBroken clouds.14 mph44%30.33 "HgN/A
12:50 PM70 °FPartly sunny.14 mph46%30.33 "HgN/A
12:20 PM70 °FPartly sunny.10 mph50%30.33 "HgN/A
11:50 AM66 °FSunny.12 mph60%30.33 "Hg10 mi
11:20 AM64 °FSunny.10 mph64%30.36 "Hg10 mi
10:50 AM61 °FPartly sunny.8 mph83%30.36 "HgN/A
10:20 AM59 °FScattered clouds.9 mph88%30.36 "HgN/A
9:50 AM55 °FFog.9 mph94%30.36 "Hg3 mi
9:20 AM55 °FFog.9 mph94%30.33 "Hg2 mi
8:50 AM54 °FFog.7 mph100%30.33 "Hg1 mi
8:20 AM54 °FFog.7 mph100%30.33 "Hg2 mi
7:50 AM54 °FFog.7 mph94%30.33 "Hg1 mi
7:20 AM54 °FRain. Overcast.5 mph94%30.33 "Hg1 mi
6:50 AM50 °FPassing clouds.3 mph100%30.33 "Hg1 mi
6:20 AM52 °FPassing clouds.6 mph100%30.33 "Hg1 mi
5:50 AM50 °FFog.5 mph100%30.33 "Hg1 mi
5:20 AM52 °FFog.5 mph94%30.33 "Hg1 mi
4:50 AM54 °FFog.2 mph94%30.33 "Hg0 mi
4:20 AM52 °FFog.2 mph100%30.33 "Hg0 mi
3:50 AM52 °FFog.3 mph94%30.33 "Hg1 mi
3:20 AM52 °FClear.3 mph94%30.33 "Hg4 mi
2:20 AM52 °FCool.5 mph94%30.33 "HgN/A
Weather by CustomWeather, © 2016

See weather overviewHow to use our weather pages